Tervuren markt Meer informatie Tervuren markt


Bezoek onze andere website:

Meteotemplate

Home Weather Station

Saratoga


Lokaal brand risico:
CBI


Regionaal brand risico: Meer informatie



Select another period ( hide this area )

Eenheden Periode Custom range Directly to
Metrisch Engels Beide
Dagelijkse Wekelijkse Maandelijkse Jaarlijkse
use both date-selectors for a custom range
previous Dag
With this date

WeatherUnderground graphs for this period ( click here )


Dagelijkse Samenvatting Zondag 24 oktober 2021
Tijd Temp. ( °C ) Dew pt. ( °C ) Wind ( km/h ) van Vlaag ( km/h ) Luchtdruk ( hPa ) Humid.( % ) Rainrate ( cm )
Hoog14,9 8,9 13,0 Zuiden ( 284/560 ) 16,0 1027,4 95 -
Gemiddeld7,8 5,1 2,0 Kalm #140/275 4,1 1023,5 84 -
Laag1,6 0,7 -   0,0 1020,0 65 -
Dagelijkse Tabular details for Zondag 24 oktober 2021
Tijd Temp. ( °C ) Dew pt. ( °C ) Wind ( km/h ) van Vlaag ( km/h ) Luchtdruk ( hPa ) Humid.( % ) Rainrate ( cm )
00:03 6,6 5,4   Kalm   1027,4 92 -
00:09 6,6 5,4   Kalm   1027,4 92 -
00:14 6,4 5,2   Kalm   1027,4 92 -
00:19 6,4 5,2   Kalm 2,0 1027,4 92 -
00:24 6,4 5,2   Kalm 2,0 1027,4 92 -
00:29 6,5 5,3   Kalm   1027,4 92 -
00:34 6,5 5,3   Kalm   1027,4 92 -
00:39 6,5 5,3   Kalm   1027,4 92 -
00:44 6,4 5,2   Kalm   1027,4 92 -
00:49 6,4 5,2   Kalm   1027,4 92 -
00:54 6,3 5,1   Kalm   1027,4 92 -
00:59 6,3 5,1   Kalm   1027,4 92 -
01:04 6,2 5,0   Kalm   1027,4 92 -
01:09 6,0 4,8   Kalm   1027,4 92 -
01:14 5,9 4,7   Kalm   1027,4 92 -
01:19 5,8 4,6   Kalm   1027,4 92 -
01:24 5,7 4,5   Kalm   1027,4 92 -
01:29 5,6 4,4   Kalm   1027,4 92 -
01:34 5,6 4,4   Kalm   1027,1 92 -
01:39 5,5 4,3   Kalm   1027,4 92 -
01:44 5,4 4,2   Kalm   1027,4 92 -
01:49 5,4 4,2   Kalm   1027,1 92 -
01:54 5,3 4,1   Kalm   1027,1 92 -
01:59 5,3 4,1   Kalm   1027,1 92 -
02:04 5,1 3,9   Kalm   1027,1 92 -
02:09 5,0 3,8   Kalm   1027,1 92 -
02:14 4,9 3,7   Kalm   1027,1 92 -
02:19 4,7 3,5   Kalm   1027,1 92 -
02:24 4,6 3,4   Kalm   1027,1 92 -
02:29 4,6 3,4   Kalm   1027,1 92 -
02:34 4,5 3,3   Kalm   1027,1 92 -
02:39 4,4 3,4   Kalm   1027,1 93 -
02:44 4,3 3,3   Kalm   1026,8 93 -
02:49 4,3 3,3   Kalm   1026,8 93 -
02:54 4,3 3,3   Kalm   1026,8 93 -
02:59 4,3 3,3   Kalm   1026,8 93 -
03:04 4,3 3,3   Kalm   1026,8 93 -
03:09 4,2 3,2   Kalm   1026,8 93 -
03:14 4,1 3,1   Kalm   1026,8 93 -
03:19 4,0 3,0   Kalm   1026,8 93 -
03:24 3,9 2,9   Kalm   1026,8 93 -
03:29 3,8 2,8   Kalm   1026,8 93 -
03:34 3,7 2,7   Kalm   1026,8 93 -
03:38 3,7 2,7   Kalm   1026,8 93 -
03:44 3,6 2,6   Kalm   1026,8 93 -
03:49 3,6 2,6   Kalm   1026,4 93 -
03:54 3,6 2,6   Kalm   1026,4 93 -
03:59 3,6 2,6   Kalm   1026,4 93 -
04:04 3,5 2,5   Kalm   1026,4 93 -
04:09 3,4 2,4   Kalm   1026,1 93 -
04:14 3,3 2,3   Kalm   1026,1 93 -
04:19 3,2 2,2   Kalm   1026,1 93 -
04:24 3,2 2,2   Kalm   1026,1 93 -
04:29 3,2 2,2   Kalm   1026,1 93 -
04:34 3,2 2,2   Kalm   1026,1 93 -
04:39 3,1 2,1   Kalm   1026,1 93 -
04:44 3,1 2,1   Kalm   1026,1 93 -
04:49 3,0 2,0   Kalm   1026,1 93 -
04:54 2,9 1,9   Kalm   1025,7 93 -
04:59 2,9 1,9   Kalm   1025,7 93 -
05:04 2,9 1,9   Kalm   1025,7 93 -
05:09 2,8 1,8   Kalm   1025,7 93 -
05:14 2,8 1,8   Kalm   1025,7 93 -
05:19 2,7 1,7   Kalm   1025,7 93 -
05:24 2,8 1,8   Kalm   1025,7 93 -
05:29 2,7 1,7   Kalm   1025,7 93 -
05:34 2,6 1,6   Kalm   1025,7 93 -
05:39 2,6 1,7   Kalm   1025,4 94 -
05:44 2,6 1,7   Kalm   1025,4 94 -
05:49 2,5 1,6   Kalm   1025,4 94 -
05:54 2,4 1,4   Kalm   1025,4 93 -
05:59 2,4 1,4   Kalm   1025,4 93 -
06:04 2,3 1,3   Kalm   1025,4 93 -
06:09 2,3 1,4   Kalm   1025,4 94 -
06:14 2,3 1,4   Kalm   1025,4 94 -
06:19 2,2 1,3   Kalm   1025,4 94 -
06:24 2,2 1,3   Kalm   1025,4 94 -
06:29 2,2 1,2   Kalm   1025,4 93 -
06:34 2,2 1,2   Kalm   1025,4 93 -
06:39 2,1 1,1   Kalm   1025,4 93 -
06:44 2,1 1,1   Kalm   1025,4 94 -
06:48 1,9 1,0   Kalm   1025,4 94 -
06:54 1,9 1,0   Kalm   1025,1 94 -
06:59 1,8 0,9   Kalm   1025,1 94 -
07:04 1,8 0,8   Kalm   1025,1 93 -
07:09 1,8 0,9   Kalm   1025,1 94 -
07:13 1,8 0,9   Kalm   1025,1 94 -
07:19 1,8 0,9   Kalm   1025,1 94 -
07:24 1,8 0,9   Kalm   1025,1 94 -
07:29 1,8 0,9   Kalm   1025,1 94 -
07:34 1,8 0,9   Kalm   1024,7 94 -
07:39 1,7 0,8   Kalm   1024,7 94 -
07:44 1,7 0,8   Kalm   1024,7 94 -
07:49 1,7 0,8   Kalm   1024,7 94 -
07:54 1,7 0,8   Kalm   1024,7 94 -
07:59 1,6 0,7   Kalm   1024,7 94 -
08:04 1,6 0,7   Kalm   1024,7 94 -
08:09 1,6 0,7   Kalm   1024,4 94 -
08:14 1,6 0,7   Kalm   1024,4 94 -
08:19 1,6 0,7   Kalm   1024,4 94 -
08:24 1,6 0,7   Kalm   1024,4 94 -
08:29 1,6 0,7   Kalm   1024,4 94 -
08:34 1,7 0,8   Kalm   1024,4 94 -
08:39 1,8 0,9   Kalm   1024,0 94 -
08:44 1,9 1,0   Kalm   1024,0 94 -
08:49 1,9 1,0   Kalm   1024,0 94 -
08:54 2,1 1,2   Kalm   1024,0 94 -
08:59 2,2 1,5   Kalm   1024,0 95 -
09:04 2,3 1,6   Kalm   1024,0 95 -
09:09 2,5 1,8   Kalm   1024,0 95 -
09:14 2,7 2,0   Kalm   1024,4 95 -
09:19 2,9 2,2   Kalm 2,0 1024,4 95 -
09:24 3,2 2,5   Kalm 2,0 1024,4 95 -
09:29 3,4 2,7   Kalm   1024,4 95 -
09:34 3,6 2,9   Kalm   1024,4 95 -
09:39 3,8 3,1 1,0 ZZW 6,0 1024,4 95 -
09:44 4,1 3,4 3,0 Zuiden 6,0 1024,4 95 -
09:49 4,2 3,5 3,0 Zuiden 3,0 1024,4 95 -
09:54 4,3 3,6 3,0 Zuiden 5,0 1024,4 95 -
09:59 4,6 3,9 3,0 ZZO 6,0 1024,0 95 -
10:04 4,9 4,2 5,0 ZZO 5,0 1024,0 95 -
10:09 5,1 4,4 3,0 ZZO 6,0 1024,0 95 -
10:14 5,2 4,5 3,0 ZZO 5,0 1024,0 95 -
10:19 5,3 4,6 6,0 Zuiden 8,0 1024,0 95 -
10:24 5,4 4,7 5,0 Zuiden 8,0 1024,0 95 -
10:29 5,6 4,9 6,0 ZZO 13,0 1024,0 95 -
10:34 5,8 5,1 6,0 Zuiden 13,0 1024,0 95 -
10:39 6,0 5,2 6,0 ZZO 10,0 1024,0 95 -
10:44 6,2 5,3 3,0 Zuiden 11,0 1024,0 94 -
10:49 6,5 5,6 3,0 Zuiden 6,0 1023,7 94 -
10:54 6,8 5,7 3,0 ZZO 10,0 1023,7 93 -
10:59 7,1 6,0 6,0 Zuiden 8,0 1023,7 93 -
11:04 7,4 6,2 5,0 ZZW 11,0 1023,7 92 -
11:09 7,8 6,4 6,0 ZZW 8,0 1023,7 91 -
11:14 8,0 6,4 6,0 Zuiden 8,0 1023,7 90 -
11:19 8,2 6,4 10,0 Zuiden 11,0 1023,7 89 -
11:24 8,4 6,4 3,0 ZZO 8,0 1023,7 88 -
11:29 8,8 6,7 1,0 Zuiden 8,0 1023,7 87 -
11:34 9,1 6,7 5,0 Zuiden 8,0 1023,7 86 -
11:38 9,3 6,9 3,0 Zuiden 8,0 1023,7 85 -
11:44 9,7 7,3 1,0 Zuiden 6,0 1023,7 85 -
11:49 10,1 7,2 3,0 ZZO 8,0 1023,7 83 -
11:54 10,4 7,4 5,0 Zuiden 8,0 1023,7 82 -
11:59 10,6 7,3 5,0 Zuiden 11,0 1023,7 81 -
12:04 10,8 7,6 6,0 ZZO 11,0 1023,7 81 -
12:09 11,0 7,6 3,0 ZZW 10,0 1023,7 80 -
12:14 11,2 7,5 5,0 ZZO 8,0 1023,7 78 -
12:19 11,4 7,7 6,0 ZZO 10,0 1023,7 78 -
12:24 11,6 7,9 1,0 Zuiden 8,0 1023,4 78 -
12:29 11,9 8,1 6,0 Zuiden 10,0 1023,7 78 -
12:34 11,9 7,6 6,0 Zuiden 11,0 1023,4 75 -
12:39 12,0 7,5 3,0 ZZO 10,0 1023,4 74 -
12:44 12,2 8,0 1,0 Zuiden 8,0 1023,4 76 -
12:49 12,4 8,1 5,0 Zuiden 10,0 1023,4 75 -
12:54 12,6 8,1 1,0 ZZO 10,0 1023,4 74 -
12:59 12,8 8,3 1,0 ZZO 3,0 1023,4 74 -
13:04 13,1 8,4 1,0 Zuiden 6,0 1023,4 74 -
13:09 13,1 8,2 6,0 ZZW 8,0 1023,4 72 -
13:14 13,2 8,3 3,0 ZZO 8,0 1023,4 72 -
13:19 13,3 8,4 6,0 ZZO 10,0 1023,4 72 -
13:24 13,3 8,2 6,0 ZZO 8,0 1023,0 71 -
13:29 13,4 8,2 6,0 ZZO 10,0 1023,0 71 -
13:34 13,5 8,3 6,0 ZZO 8,0 1023,0 71 -
13:39 13,6 8,2 8,0 ZZO 13,0 1023,0 70 -
13:44 13,6 8,1 6,0 ZZO 13,0 1022,7 70 -
13:49 13,5 7,9 6,0 Zuiden 10,0 1022,7 69 -
13:54 13,6 8,2 6,0 Zuiden 8,0 1022,7 70 -
13:59 13,7 8,2 13,0 ZZO 13,0 1022,7 70 -
14:04 13,7 8,1 8,0 Zuiden 13,0 1022,4 69 -
14:09 13,7 8,1 8,0 Zuiden 8,0 1022,4 69 -
14:14 13,7 8,1 3,0 ZZO 8,0 1022,4 69 -
14:19 13,8 8,2 10,0 ZZO 11,0 1022,4 69 -
14:24 13,8 8,0 8,0 Zuiden 13,0 1022,4 68 -
14:29 13,9 8,2 8,0 ZZW 8,0 1022,4 69 -
14:34 14,0 8,2 6,0 ZZW 8,0 1022,4 68 -
14:39 14,1 8,3 8,0 Zuiden 10,0 1022,4 68 -
14:44 14,1 8,3 5,0 Zuiden 8,0 1022,4 68 -
14:49 14,1 8,5 3,0 ZZO 8,0 1022,4 69 -
14:54 14,2 8,4 3,0 Zuiden 10,0 1022,4 68 -
14:59 14,2 8,3 3,0 Zuiden 6,0 1022,0 68 -
15:04 14,2 8,6 1,0 ZO 3,0 1022,0 69 -
15:09 14,3 8,5 6,0 Zuiden 10,0 1022,0 68 -
15:14 14,5 8,7 3,0 ZZW 10,0 1021,7 68 -
15:19 14,6 8,5 1,0 ZO 10,0 1021,7 67 -
15:24 14,6 8,5 3,0 ZZO 11,0 1021,7 67 -
15:29 14,5 8,4 5,0 Zuiden 11,0 1021,7 67 -
15:34 14,4 8,6 1,0 Zuiden 8,0 1021,7 68 -
15:39 14,5 8,7 10,0 ZZO 10,0 1021,7 68 -
15:44 14,6 8,7 10,0 Zuiden 10,0 1021,7 68 -
15:49 14,7 8,9 3,0 ZZO 16,0 1021,3 68 -
15:54 14,7 8,4 5,0 Zuiden 10,0 1021,3 66 -
15:59 14,7 8,6 8,0 ZO 10,0 1021,3 67 -
16:04 14,7 8,6 6,0 ZZO 11,0 1021,0 67 -
16:09 14,7 8,4 3,0 ZZO 11,0 1021,0 66 -
16:14 14,6 8,3 10,0 ZZO 10,0 1021,0 66 -
16:19 14,7 8,2 6,0 ZZO 11,0 1021,0 65 -
16:24 14,7 8,4 5,0 ZZO 11,0 1021,0 66 -
16:29 14,7 8,4 5,0 Zuiden 8,0 1020,7 66 -
16:34 14,8 8,7 6,0 Zuiden 10,0 1020,7 67 -
16:39 14,8 8,7 6,0 ZZO 10,0 1020,7 67 -
16:44 14,9 8,6 5,0 Zuiden 8,0 1020,7 66 -
16:49 14,9 8,6 8,0 Zuiden 8,0 1020,7 66 -
16:54 14,8 8,5 5,0 ZZO 10,0 1020,7 66 -
16:59 14,8 8,5 3,0 Zuiden 8,0 1020,7 66 -
17:04 14,8 8,5 3,0 ZZW 3,0 1020,7 66 -
17:09 14,9 8,6 3,0 Zuiden 8,0 1020,7 66 -
17:14 14,8 8,5 3,0 ZZO 8,0 1020,7 66 -
17:19 14,8 8,7 1,0 ZZO 6,0 1020,7 67 -
17:24 14,7 8,4 1,0 ZZO 10,0 1020,7 66 -
17:29 14,7 8,5 6,0 Zuiden 8,0 1020,7 67 -
17:34 14,6 8,8   Kalm 8,0 1020,3 68 -
17:39 14,5 8,7 3,0 Zuiden 6,0 1020,3 68 -
17:44 14,4 8,5 1,0 Zuiden 6,0 1020,3 68 -
17:49 14,2 8,4 3,0 Zuiden 6,0 1020,3 68 -
17:54 14,1 8,3 3,0 ZZO 8,0 1020,3 68 -
17:59 13,9 8,1 5,0 ZZO 8,0 1020,3 68 -
18:04 13,7 8,0 3,0 Zuiden 8,0 1020,3 69 -
18:09 13,4 7,8 3,0 Zuiden 6,0 1020,3 69 -
18:14 13,2 7,8 1,0 Zuiden 3,0 1020,0 70 -
18:19 12,9 7,7   Kalm 2,0 1020,0 71 -
18:24 12,6 7,5 1,0 Zuiden 2,0 1020,0 72 -
18:29 12,3 7,4 1,0 Zuiden 2,0 1020,3 72 -
18:34 12,0 7,3   Kalm 2,0 1020,0 73 -
18:39 11,7 7,1   Kalm   1020,0 74 -
18:44 11,3 6,9   Kalm   1020,3 75 -
18:49 11,0 6,7   Kalm   1020,0 76 -
18:54 10,8 6,7 1,0 Zuiden 3,0 1020,0 76 -
18:59 10,5 6,5 1,0 Zuiden 2,0 1020,0 77 -
19:04 10,3 6,4 3,0 Zuiden 6,0 1020,0 77 -
19:09 10,3 6,4 1,0 Zuiden 3,0 1020,0 77 -
19:14 10,1 6,4 1,0 Zuiden 2,0 1020,0 78 -
19:19 10,0 6,3 1,0 Zuiden 2,0 1020,0 78 -
19:24 9,8 6,1 1,0 Zuiden 3,0 1020,0 78 -
19:29 9,7 6,1   Kalm 2,0 1020,0 79 -
19:34 9,6 6,1   Kalm 2,0 1020,0 79 -
19:39 9,5 6,0   Kalm   1020,3 79 -
19:44 9,4 5,9   Kalm   1020,3 79 -
19:49 9,2 5,7   Kalm   1020,3 80 -
19:54 8,9 5,6   Kalm   1020,0 80 -
19:59 8,7 5,6   Kalm   1020,0 81 -
20:04 8,6 5,5   Kalm   1020,3 81 -
20:09 8,3 5,4   Kalm   1020,3 82 -
20:14 8,1 5,4   Kalm   1020,3 83 -
20:19 8,0 5,3   Kalm   1020,3 83 -
20:24 7,8 5,3   Kalm   1020,3 84 -
20:29 7,7 5,2   Kalm   1020,3 84 -
20:34 7,6 5,2   Kalm 2,0 1020,3 85 -
20:39 7,5 5,3   Kalm 3,0 1020,3 86 -
20:44 7,6 5,4   Kalm 2,0 1020,3 86 -
20:49 7,6 5,4   Kalm 2,0 1020,3 86 -
20:54 7,7 5,5   Kalm 6,0 1020,3 86 -
20:59 7,8 5,6 1,0 Zuiden 3,0 1020,3 86 -
21:04 7,8 5,6 1,0 Zuiden 3,0 1020,3 86 -
21:09 7,8 5,6 1,0 Zuiden 3,0 1020,3 86 -
21:14 7,8 5,6   Kalm 3,0 1020,3 86 -
21:19 7,8 5,6 1,0 Zuiden 3,0 1020,3 86 -
21:24 7,9 5,9 3,0 Zuiden 5,0 1020,3 87 -
21:29 8,1 6,1 8,0 ZZO 10,0 1020,3 87 -
21:34 8,2 6,0 5,0 Zuiden 8,0 1020,3 86 -
21:39 8,2 6,0 3,0 Zuiden 8,0 1020,3 86 -
21:44 8,3 6,1 3,0 Zuiden 8,0 1020,3 86 -
21:49 8,2 6,0 1,0 ZZW 5,0 1020,0 86 -
21:54 8,2 6,0 6,0 Zuiden 8,0 1020,0 86 -
21:59 8,2 6,0 1,0 ZZW 10,0 1020,0 86 -
22:04 8,2 6,0 3,0 ZZW 10,0 1020,0 86 -
22:09 8,2 6,0 1,0 ZZW 10,0 1020,0 86 -
22:14 8,2 6,0 10,0 Zuiden 10,0 1020,0 86 -
22:19 8,2 6,0 1,0 Zuiden 6,0 1020,0 86 -
22:24 8,1 5,9 3,0 ZZW 6,0 1020,0 86 -
22:29 8,0 5,8 3,0 ZZW 5,0 1020,0 86 -
22:34 8,0 5,8 3,0 Zuiden 5,0 1020,0 86 -
22:39 7,9 5,7 3,0 Zuiden 8,0 1020,0 86 -
22:44 7,9 5,7 3,0 Zuiden 6,0 1020,0 86 -
22:49 7,8 5,6 8,0 ZZO 8,0 1020,0 86 -
22:54 7,8 5,6 3,0 Zuiden 8,0 1020,0 86 -
Dagelijkse Samenvatting Zondag 24 oktober 2021
Tijd Temp. ( °C ) Dew pt. ( °C ) Wind ( km/h ) van Vlaag ( km/h ) Luchtdruk ( hPa ) Humid.( % ) Rainrate ( cm )
Hoog14,9 8,9 13,0 Zuiden ( 284/560 ) 16,0 1027,4 95 -
Gemiddeld7,8 5,1 2,0 Kalm #140/275 4,1 1023,5 84 -
Laag1,6 0,7 -   0,0 1020,0 65 -
Dagelijkse Tabular details for Zondag 24 oktober 2021
Tijd Temp. ( °C ) Dew pt. ( °C ) Wind ( km/h ) van Vlaag ( km/h ) Luchtdruk ( hPa ) Humid.( % ) Rainrate ( cm )
00:03 6,6 5,4   Kalm   1027,4 92 -
00:09 6,6 5,4   Kalm   1027,4 92 -
00:14 6,4 5,2   Kalm   1027,4 92 -
00:19 6,4 5,2   Kalm 2,0 1027,4 92 -
00:24 6,4 5,2   Kalm 2,0 1027,4 92 -
00:29 6,5 5,3   Kalm   1027,4 92 -
00:34 6,5 5,3   Kalm   1027,4 92 -
00:39 6,5 5,3   Kalm   1027,4 92 -
00:44 6,4 5,2   Kalm   1027,4 92 -
00:49 6,4 5,2   Kalm   1027,4 92 -
00:54 6,3 5,1   Kalm   1027,4 92 -
00:59 6,3 5,1   Kalm   1027,4 92 -
01:04 6,2 5,0   Kalm   1027,4 92 -
01:09 6,0 4,8   Kalm   1027,4 92 -
01:14 5,9 4,7   Kalm   1027,4 92 -
01:19 5,8 4,6   Kalm   1027,4 92 -
01:24 5,7 4,5   Kalm   1027,4 92 -
01:29 5,6 4,4   Kalm   1027,4 92 -
01:34 5,6 4,4   Kalm   1027,1 92 -
01:39 5,5 4,3   Kalm   1027,4 92 -
01:44 5,4 4,2   Kalm   1027,4 92 -
01:49 5,4 4,2   Kalm   1027,1 92 -
01:54 5,3 4,1   Kalm   1027,1 92 -
01:59 5,3 4,1   Kalm   1027,1 92 -
02:04 5,1 3,9   Kalm   1027,1 92 -
02:09 5,0 3,8   Kalm   1027,1 92 -
02:14 4,9 3,7   Kalm   1027,1 92 -
02:19 4,7 3,5   Kalm   1027,1 92 -
02:24 4,6 3,4   Kalm   1027,1 92 -
02:29 4,6 3,4   Kalm   1027,1 92 -
02:34 4,5 3,3   Kalm   1027,1 92 -
02:39 4,4 3,4   Kalm   1027,1 93 -
02:44 4,3 3,3   Kalm   1026,8 93 -
02:49 4,3 3,3   Kalm   1026,8 93 -
02:54 4,3 3,3   Kalm   1026,8 93 -
02:59 4,3 3,3   Kalm   1026,8 93 -
03:04 4,3 3,3   Kalm   1026,8 93 -
03:09 4,2 3,2   Kalm   1026,8 93 -
03:14 4,1 3,1   Kalm   1026,8 93 -
03:19 4,0 3,0   Kalm   1026,8 93 -
03:24 3,9 2,9   Kalm   1026,8 93 -
03:29 3,8 2,8   Kalm   1026,8 93 -
03:34 3,7 2,7   Kalm   1026,8 93 -
03:38 3,7 2,7   Kalm   1026,8 93 -
03:44 3,6 2,6   Kalm   1026,8 93 -
03:49 3,6 2,6   Kalm   1026,4 93 -
03:54 3,6 2,6   Kalm   1026,4 93 -
03:59 3,6 2,6   Kalm   1026,4 93 -
04:04 3,5 2,5   Kalm   1026,4 93 -
04:09 3,4 2,4   Kalm   1026,1 93 -
04:14 3,3 2,3   Kalm   1026,1 93 -
04:19 3,2 2,2   Kalm   1026,1 93 -
04:24 3,2 2,2   Kalm   1026,1 93 -
04:29 3,2 2,2   Kalm   1026,1 93 -
04:34 3,2 2,2   Kalm   1026,1 93 -
04:39 3,1 2,1   Kalm   1026,1 93 -
04:44 3,1 2,1   Kalm   1026,1 93 -
04:49 3,0 2,0   Kalm   1026,1 93 -
04:54 2,9 1,9   Kalm   1025,7 93 -
04:59 2,9 1,9   Kalm   1025,7 93 -
05:04 2,9 1,9   Kalm   1025,7 93 -
05:09 2,8 1,8   Kalm   1025,7 93 -
05:14 2,8 1,8   Kalm   1025,7 93 -
05:19 2,7 1,7   Kalm   1025,7 93 -
05:24 2,8 1,8   Kalm   1025,7 93 -
05:29 2,7 1,7   Kalm   1025,7 93 -
05:34 2,6 1,6   Kalm   1025,7 93 -
05:39 2,6 1,7   Kalm   1025,4 94 -
05:44 2,6 1,7   Kalm   1025,4 94 -
05:49 2,5 1,6   Kalm   1025,4 94 -
05:54 2,4 1,4   Kalm   1025,4 93 -
05:59 2,4 1,4   Kalm   1025,4 93 -
06:04 2,3 1,3   Kalm   1025,4 93 -
06:09 2,3 1,4   Kalm   1025,4 94 -
06:14 2,3 1,4   Kalm   1025,4 94 -
06:19 2,2 1,3   Kalm   1025,4 94 -
06:24 2,2 1,3   Kalm   1025,4 94 -
06:29 2,2 1,2   Kalm   1025,4 93 -
06:34 2,2 1,2   Kalm   1025,4 93 -
06:39 2,1 1,1   Kalm   1025,4 93 -
06:44 2,1 1,1   Kalm   1025,4 94 -
06:48 1,9 1,0   Kalm   1025,4 94 -
06:54 1,9 1,0   Kalm   1025,1 94 -
06:59 1,8 0,9   Kalm   1025,1 94 -
07:04 1,8 0,8   Kalm   1025,1 93 -
07:09 1,8 0,9   Kalm   1025,1 94 -
07:13 1,8 0,9   Kalm   1025,1 94 -
07:19 1,8 0,9   Kalm   1025,1 94 -
07:24 1,8 0,9   Kalm   1025,1 94 -
07:29 1,8 0,9   Kalm   1025,1 94 -
07:34 1,8 0,9   Kalm   1024,7 94 -
07:39 1,7 0,8   Kalm   1024,7 94 -
07:44 1,7 0,8   Kalm   1024,7 94 -
07:49 1,7 0,8   Kalm   1024,7 94 -
07:54 1,7 0,8   Kalm   1024,7 94 -
07:59 1,6 0,7   Kalm   1024,7 94 -
08:04 1,6 0,7   Kalm   1024,7 94 -
08:09 1,6 0,7   Kalm   1024,4 94 -
08:14 1,6 0,7   Kalm   1024,4 94 -
08:19 1,6 0,7   Kalm   1024,4 94 -
08:24 1,6 0,7   Kalm   1024,4 94 -
08:29 1,6 0,7   Kalm   1024,4 94 -
08:34 1,7 0,8   Kalm   1024,4 94 -
08:39 1,8 0,9   Kalm   1024,0 94 -
08:44 1,9 1,0   Kalm   1024,0 94 -
08:49 1,9 1,0   Kalm   1024,0 94 -
08:54 2,1 1,2   Kalm   1024,0 94 -
08:59 2,2 1,5   Kalm   1024,0 95 -
09:04 2,3 1,6   Kalm   1024,0 95 -
09:09 2,5 1,8   Kalm   1024,0 95 -
09:14 2,7 2,0   Kalm   1024,4 95 -
09:19 2,9 2,2   Kalm 2,0 1024,4 95 -
09:24 3,2 2,5   Kalm 2,0 1024,4 95 -
09:29 3,4 2,7   Kalm   1024,4 95 -
09:34 3,6 2,9   Kalm   1024,4 95 -
09:39 3,8 3,1 1,0 ZZW 6,0 1024,4 95 -
09:44 4,1 3,4 3,0 Zuiden 6,0 1024,4 95 -
09:49 4,2 3,5 3,0 Zuiden 3,0 1024,4 95 -
09:54 4,3 3,6 3,0 Zuiden 5,0 1024,4 95 -
09:59 4,6 3,9 3,0 ZZO 6,0 1024,0 95 -
10:04 4,9 4,2 5,0 ZZO 5,0 1024,0 95 -
10:09 5,1 4,4 3,0 ZZO 6,0 1024,0 95 -
10:14 5,2 4,5 3,0 ZZO 5,0 1024,0 95 -
10:19 5,3 4,6 6,0 Zuiden 8,0 1024,0 95 -
10:24 5,4 4,7 5,0 Zuiden 8,0 1024,0 95 -
10:29 5,6 4,9 6,0 ZZO 13,0 1024,0 95 -
10:34 5,8 5,1 6,0 Zuiden 13,0 1024,0 95 -
10:39 6,0 5,2 6,0 ZZO 10,0 1024,0 95 -
10:44 6,2 5,3 3,0 Zuiden 11,0 1024,0 94 -
10:49 6,5 5,6 3,0 Zuiden 6,0 1023,7 94 -
10:54 6,8 5,7 3,0 ZZO 10,0 1023,7 93 -
10:59 7,1 6,0 6,0 Zuiden 8,0 1023,7 93 -
11:04 7,4 6,2 5,0 ZZW 11,0 1023,7 92 -
11:09 7,8 6,4 6,0 ZZW 8,0 1023,7 91 -
11:14 8,0 6,4 6,0 Zuiden 8,0 1023,7 90 -
11:19 8,2 6,4 10,0 Zuiden 11,0 1023,7 89 -
11:24 8,4 6,4 3,0 ZZO 8,0 1023,7 88 -
11:29 8,8 6,7 1,0 Zuiden 8,0 1023,7 87 -
11:34 9,1 6,7 5,0 Zuiden 8,0 1023,7 86 -
11:38 9,3 6,9 3,0 Zuiden 8,0 1023,7 85 -
11:44 9,7 7,3 1,0 Zuiden 6,0 1023,7 85 -
11:49 10,1 7,2 3,0 ZZO 8,0 1023,7 83 -
11:54 10,4 7,4 5,0 Zuiden 8,0 1023,7 82 -
11:59 10,6 7,3 5,0 Zuiden 11,0 1023,7 81 -
12:04 10,8 7,6 6,0 ZZO 11,0 1023,7 81 -
12:09 11,0 7,6 3,0 ZZW 10,0 1023,7 80 -
12:14 11,2 7,5 5,0 ZZO 8,0 1023,7 78 -
12:19 11,4 7,7 6,0 ZZO 10,0 1023,7 78 -
12:24 11,6 7,9 1,0 Zuiden 8,0 1023,4 78 -
12:29 11,9 8,1 6,0 Zuiden 10,0 1023,7 78 -
12:34 11,9 7,6 6,0 Zuiden 11,0 1023,4 75 -
12:39 12,0 7,5 3,0 ZZO 10,0 1023,4 74 -
12:44 12,2 8,0 1,0 Zuiden 8,0 1023,4 76 -
12:49 12,4 8,1 5,0 Zuiden 10,0 1023,4 75 -
12:54 12,6 8,1 1,0 ZZO 10,0 1023,4 74 -
12:59 12,8 8,3 1,0 ZZO 3,0 1023,4 74 -
13:04 13,1 8,4 1,0 Zuiden 6,0 1023,4 74 -
13:09 13,1 8,2 6,0 ZZW 8,0 1023,4 72 -
13:14 13,2 8,3 3,0 ZZO 8,0 1023,4 72 -
13:19 13,3 8,4 6,0 ZZO 10,0 1023,4 72 -
13:24 13,3 8,2 6,0 ZZO 8,0 1023,0 71 -
13:29 13,4 8,2 6,0 ZZO 10,0 1023,0 71 -
13:34 13,5 8,3 6,0 ZZO 8,0 1023,0 71 -
13:39 13,6 8,2 8,0 ZZO 13,0 1023,0 70 -
13:44 13,6 8,1 6,0 ZZO 13,0 1022,7 70 -
13:49 13,5 7,9 6,0 Zuiden 10,0 1022,7 69 -
13:54 13,6 8,2 6,0 Zuiden 8,0 1022,7 70 -
13:59 13,7 8,2 13,0 ZZO 13,0 1022,7 70 -
14:04 13,7 8,1 8,0 Zuiden 13,0 1022,4 69 -
14:09 13,7 8,1 8,0 Zuiden 8,0 1022,4 69 -
14:14 13,7 8,1 3,0 ZZO 8,0 1022,4 69 -
14:19 13,8 8,2 10,0 ZZO 11,0 1022,4 69 -
14:24 13,8 8,0 8,0 Zuiden 13,0 1022,4 68 -
14:29 13,9 8,2 8,0 ZZW 8,0 1022,4 69 -
14:34 14,0 8,2 6,0 ZZW 8,0 1022,4 68 -
14:39 14,1 8,3 8,0 Zuiden 10,0 1022,4 68 -
14:44 14,1 8,3 5,0 Zuiden 8,0 1022,4 68 -
14:49 14,1 8,5 3,0 ZZO 8,0 1022,4 69 -
14:54 14,2 8,4 3,0 Zuiden 10,0 1022,4 68 -
14:59 14,2 8,3 3,0 Zuiden 6,0 1022,0 68 -
15:04 14,2 8,6 1,0 ZO 3,0 1022,0 69 -
15:09 14,3 8,5 6,0 Zuiden 10,0 1022,0 68 -
15:14 14,5 8,7 3,0 ZZW 10,0 1021,7 68 -
15:19 14,6 8,5 1,0 ZO 10,0 1021,7 67 -
15:24 14,6 8,5 3,0 ZZO 11,0 1021,7 67 -
15:29 14,5 8,4 5,0 Zuiden 11,0 1021,7 67 -
15:34 14,4 8,6 1,0 Zuiden 8,0 1021,7 68 -
15:39 14,5 8,7 10,0 ZZO 10,0 1021,7 68 -
15:44 14,6 8,7 10,0 Zuiden 10,0 1021,7 68 -
15:49 14,7 8,9 3,0 ZZO 16,0 1021,3 68 -
15:54 14,7 8,4 5,0 Zuiden 10,0 1021,3 66 -
15:59 14,7 8,6 8,0 ZO 10,0 1021,3 67 -
16:04 14,7 8,6 6,0 ZZO 11,0 1021,0 67 -
16:09 14,7 8,4 3,0 ZZO 11,0 1021,0 66 -
16:14 14,6 8,3 10,0 ZZO 10,0 1021,0 66 -
16:19 14,7 8,2 6,0 ZZO 11,0 1021,0 65 -
16:24 14,7 8,4 5,0 ZZO 11,0 1021,0 66 -
16:29 14,7 8,4 5,0 Zuiden 8,0 1020,7 66 -
16:34 14,8 8,7 6,0 Zuiden 10,0 1020,7 67 -
16:39 14,8 8,7 6,0 ZZO 10,0 1020,7 67 -
16:44 14,9 8,6 5,0 Zuiden 8,0 1020,7 66 -
16:49 14,9 8,6 8,0 Zuiden 8,0 1020,7 66 -
16:54 14,8 8,5 5,0 ZZO 10,0 1020,7 66 -
16:59 14,8 8,5 3,0 Zuiden 8,0 1020,7 66 -
17:04 14,8 8,5 3,0 ZZW 3,0 1020,7 66 -
17:09 14,9 8,6 3,0 Zuiden 8,0 1020,7 66 -
17:14 14,8 8,5 3,0 ZZO 8,0 1020,7 66 -
17:19 14,8 8,7 1,0 ZZO 6,0 1020,7 67 -
17:24 14,7 8,4 1,0 ZZO 10,0 1020,7 66 -
17:29 14,7 8,5 6,0 Zuiden 8,0 1020,7 67 -
17:34 14,6 8,8   Kalm 8,0 1020,3 68 -
17:39 14,5 8,7 3,0 Zuiden 6,0 1020,3 68 -
17:44 14,4 8,5 1,0 Zuiden 6,0 1020,3 68 -
17:49 14,2 8,4 3,0 Zuiden 6,0 1020,3 68 -
17:54 14,1 8,3 3,0 ZZO 8,0 1020,3 68 -
17:59 13,9 8,1 5,0 ZZO 8,0 1020,3 68 -
18:04 13,7 8,0 3,0 Zuiden 8,0 1020,3 69 -
18:09 13,4 7,8 3,0 Zuiden 6,0 1020,3 69 -
18:14 13,2 7,8 1,0 Zuiden 3,0 1020,0 70 -
18:19 12,9 7,7   Kalm 2,0 1020,0 71 -
18:24 12,6 7,5 1,0 Zuiden 2,0 1020,0 72 -
18:29 12,3 7,4 1,0 Zuiden 2,0 1020,3 72 -
18:34 12,0 7,3   Kalm 2,0 1020,0 73 -
18:39 11,7 7,1   Kalm   1020,0 74 -
18:44 11,3 6,9   Kalm   1020,3 75 -
18:49 11,0 6,7   Kalm   1020,0 76 -
18:54 10,8 6,7 1,0 Zuiden 3,0 1020,0 76 -
18:59 10,5 6,5 1,0 Zuiden 2,0 1020,0 77 -
19:04 10,3 6,4 3,0 Zuiden 6,0 1020,0 77 -
19:09 10,3 6,4 1,0 Zuiden 3,0 1020,0 77 -
19:14 10,1 6,4 1,0 Zuiden 2,0 1020,0 78 -
19:19 10,0 6,3 1,0 Zuiden 2,0 1020,0 78 -
19:24 9,8 6,1 1,0 Zuiden 3,0 1020,0 78 -
19:29 9,7 6,1   Kalm 2,0 1020,0 79 -
19:34 9,6 6,1   Kalm 2,0 1020,0 79 -
19:39 9,5 6,0   Kalm   1020,3 79 -
19:44 9,4 5,9   Kalm   1020,3 79 -
19:49 9,2 5,7   Kalm   1020,3 80 -
19:54 8,9 5,6   Kalm   1020,0 80 -
19:59 8,7 5,6   Kalm   1020,0 81 -
20:04 8,6 5,5   Kalm   1020,3 81 -
20:09 8,3 5,4   Kalm   1020,3 82 -
20:14 8,1 5,4   Kalm   1020,3 83 -
20:19 8,0 5,3   Kalm   1020,3 83 -
20:24 7,8 5,3   Kalm   1020,3 84 -
20:29 7,7 5,2   Kalm   1020,3 84 -
20:34 7,6 5,2   Kalm 2,0 1020,3 85 -
20:39 7,5 5,3   Kalm 3,0 1020,3 86 -
20:44 7,6 5,4   Kalm 2,0 1020,3 86 -
20:49 7,6 5,4   Kalm 2,0 1020,3 86 -
20:54 7,7 5,5   Kalm 6,0 1020,3 86 -
20:59 7,8 5,6 1,0 Zuiden 3,0 1020,3 86 -
21:04 7,8 5,6 1,0 Zuiden 3,0 1020,3 86 -
21:09 7,8 5,6 1,0 Zuiden 3,0 1020,3 86 -
21:14 7,8 5,6   Kalm 3,0 1020,3 86 -
21:19 7,8 5,6 1,0 Zuiden 3,0 1020,3 86 -
21:24 7,9 5,9 3,0 Zuiden 5,0 1020,3 87 -
21:29 8,1 6,1 8,0 ZZO 10,0 1020,3 87 -
21:34 8,2 6,0 5,0 Zuiden 8,0 1020,3 86 -
21:39 8,2 6,0 3,0 Zuiden 8,0 1020,3 86 -
21:44 8,3 6,1 3,0 Zuiden 8,0 1020,3 86 -
21:49 8,2 6,0 1,0 ZZW 5,0 1020,0 86 -
21:54 8,2 6,0 6,0 Zuiden 8,0 1020,0 86 -
21:59 8,2 6,0 1,0 ZZW 10,0 1020,0 86 -
22:04 8,2 6,0 3,0 ZZW 10,0 1020,0 86 -
22:09 8,2 6,0 1,0 ZZW 10,0 1020,0 86 -
22:14 8,2 6,0 10,0 Zuiden 10,0 1020,0 86 -
22:19 8,2 6,0 1,0 Zuiden 6,0 1020,0 86 -
22:24 8,1 5,9 3,0 ZZW 6,0 1020,0 86 -
22:29 8,0 5,8 3,0 ZZW 5,0 1020,0 86 -
22:34 8,0 5,8 3,0 Zuiden 5,0 1020,0 86 -
22:39 7,9 5,7 3,0 Zuiden 8,0 1020,0 86 -
22:44 7,9 5,7 3,0 Zuiden 6,0 1020,0 86 -
22:49 7,8 5,6 8,0 ZZO 8,0 1020,0 86 -
22:54 7,8 5,6 3,0 Zuiden 8,0 1020,0 86 -

Download your copy of this data-set  here

Our weather-data as stored at Weather Underground. Script ontwikkeld door Jim McMurry. Aangepast voor de template door Leuven-Template.eu

U vindt ons ook hier:

Het Weer Aktueel

UK Metoffice

European Weather Network

WeatherCloud

Weather Underground

Benelux Weer Netwerk

AWEKAS

Citizen Weather Observer Program (CWOP)

HAMweather, WeatherForYou, PWS Weather

Apparatuur in gebruik:

Weerstation
Davis VP2

Weerprogramma
Meteobridge

Weercomputer
Meteobridge NANO

Davis VP2

Meteobridge

Meteobridge NANO